Weather History for Pickens County Airport, SC

Change the Weather History Date:

Sunday, February 2, 2014

  Actual Average Record
Temperature  
Mean Temperature 46 °F -  
Max Temperature 65 °F 55 °F 65 °F (2014)
Min Temperature 28 °F 34 °F 28 °F (2014)
Degree Days  
Heating Degree Days 18    
Moisture  
Dew Point 43 °F    
Average Humidity 88    
Maximum Humidity 100    
Minimum Humidity 59    
Precipitation  
Precipitation 0.00 in - - ()
Sea Level Pressure  
Sea Level Pressure 30.07 in    
Wind  
Wind Speed - (North)    
Max Wind Speed -    
Max Gust Speed -    
Visibility 8 miles    
Events Fog , Rain    
Averages and records for this station are not official NWS values.
T = Trace of Precipitation, MM = Missing Value Source: NWS Daily Summary

Daily Weather History Graph

Daily Weather History Graph

Search for Another Location

Airport:

Trip Planner

Search our weather history database for the weather conditions in past years. The results will help you decide how hot, cold, wet, or windy it might be!

Date:

Astronomy

Feb. 02, 2014 Rise Set
Actual Time 7:28 AM EST 6:01 PM EST
Civil Twilight 7:02 AM EST 6:27 PM EST
Nautical Twilight 6:31 AM EST 6:57 PM EST
Astronomical Twilight 6:02 AM EST 7:27 PM EST
Moon 9:03 AM EST (2/2) 9:32 PM EST (2/2)
Length of Visible Light 11h 25m
Length of Day
10h 32m
Waxing Crescent, 11% of the Moon is Illuminated
Feb 2
Waxing Crescent
Feb 6
First Quarter
Feb 14
Full
Feb 22
Last Quarter
Mar 1
New

Hourly Weather History & Observations

Time (EST) Temp. Dew Point Humidity Pressure Visibility Wind Dir Wind Speed Gust Speed Precip Events Conditions
12:15 AM 36.7 °F 35.6 °F 96% 30.12 in 10.0 mi North - - N/A   Clear
12:35 AM 34.9 °F 34.7 °F 99% 30.11 in 10.0 mi North - - N/A   Clear
12:55 AM 34.2 °F 34.2 °F 100% 30.10 in 10.0 mi North - - N/A   Clear
1:15 AM 35.1 °F 34.3 °F 97% 30.10 in 10.0 mi North - - N/A   Clear
1:35 AM 33.8 °F 34.0 °F 100% 30.10 in 10.0 mi North - - N/A   Clear
1:55 AM - - N/A% 30.10 in 10.0 mi North - - N/A   Clear
2:15 AM 32.0 °F 32.2 °F 100% 30.09 in 10.0 mi North - - N/A   Clear
2:35 AM 31.8 °F 32.0 °F 100% 30.09 in 10.0 mi North - - N/A   Clear
2:55 AM 33.1 °F 33.3 °F 100% 30.08 in 10.0 mi North - - N/A   Clear
3:15 AM 33.3 °F 33.4 °F 100% 30.08 in 10.0 mi North - - N/A   Clear
3:35 AM 31.6 °F 31.8 °F 100% 30.08 in 10.0 mi North - - N/A   Clear
3:55 AM 31.8 °F 31.8 °F 100% 30.08 in 10.0 mi North - - N/A   Clear
4:15 AM 32.0 °F 32.2 °F 100% 30.08 in 7.0 mi North - - N/A   Clear
4:35 AM 31.1 °F 31.3 °F 100% 30.08 in 10.0 mi North - - N/A   Clear
4:55 AM 29.7 °F 29.7 °F 100% 30.07 in 10.0 mi North - - N/A   Clear
5:15 AM 29.3 °F 29.5 °F 100% 30.07 in 10.0 mi North - - N/A   Clear
5:35 AM 29.5 °F 29.5 °F 100% 30.07 in 7.0 mi North - - N/A   Clear
5:55 AM 29.5 °F 29.7 °F 100% 30.07 in 10.0 mi North - - N/A   Clear
6:15 AM - - N/A% 30.07 in 10.0 mi North - - N/A   Clear
6:35 AM 28.6 °F 28.8 °F 100% 30.08 in 10.0 mi North - - N/A   Clear
6:55 AM 29.3 °F 29.3 °F 100% 30.10 in 10.0 mi North - - N/A   Clear
7:15 AM 28.9 °F 29.1 °F 100% 30.10 in 10.0 mi North - - N/A   Scattered Clouds
7:35 AM 30.0 °F 30.2 °F 100% 30.10 in 4.0 mi North - - N/A   Mostly Cloudy
7:55 AM 30.7 °F 30.9 °F 100% 30.11 in 0.2 mi North - - N/A Fog Light Freezing Fog
8:15 AM 33.8 °F 34.0 °F 100% 30.12 in 0.2 mi North - - N/A Fog Fog
8:35 AM 34.0 °F 34.2 °F 100% 30.13 in 0.2 mi North - - N/A Fog Fog
8:55 AM 35.6 °F 35.6 °F 100% 30.14 in 0.2 mi North - - N/A Fog Fog
9:15 AM 37.9 °F 38.1 °F 100% 30.13 in 0.2 mi North - - N/A Fog Fog
9:35 AM 39.2 °F 39.2 °F 100% 30.14 in 0.2 mi North - - N/A Fog Fog
9:55 AM 41.4 °F 41.4 °F 100% 30.13 in 0.8 mi North - - N/A   Overcast
10:15 AM 43.2 °F 43.2 °F 100% 30.13 in 3.0 mi North - - N/A   Overcast
10:35 AM 44.2 °F 44.2 °F 100% 30.13 in 3.0 mi North - - N/A   Overcast
10:55 AM 45.7 °F 45.9 °F 100% 30.13 in 4.0 mi North - - N/A   Overcast
11:15 AM 48.0 °F 46.9 °F 96% 30.13 in 5.0 mi North - - N/A   Overcast
11:35 AM 51.8 °F 47.8 °F 86% 30.12 in 7.0 mi North - - N/A   Mostly Cloudy
11:55 AM 54.7 °F 48.0 °F 78% 30.11 in 7.0 mi North - - N/A   Clear
12:15 PM 57.0 °F 48.2 °F 72% 30.11 in 10.0 mi North - - N/A   Scattered Clouds
12:35 PM 59.0 °F 48.6 °F 68% 30.09 in 10.0 mi North - - N/A   Scattered Clouds
12:55 PM 60.4 °F 49.1 °F 66% 30.08 in 10.0 mi North - - N/A   Clear
1:15 PM 61.5 °F 49.5 °F 65% 30.07 in 10.0 mi North - - N/A   Clear
1:35 PM 61.9 °F 49.6 °F 64% 30.06 in 10.0 mi North - - N/A   Clear
1:55 PM 63.7 °F 50.0 °F 61% 30.05 in 10.0 mi North - - N/A   Scattered Clouds
2:15 PM 63.7 °F 50.0 °F 61% 30.04 in 10.0 mi North - - N/A   Scattered Clouds
2:35 PM 63.7 °F 50.0 °F 61% 30.03 in 10.0 mi North - - N/A   Scattered Clouds
2:55 PM 64.4 °F 50.4 °F 60% 30.03 in 10.0 mi North - - N/A   Scattered Clouds
3:15 PM 64.4 °F 50.5 °F 61% 30.03 in 10.0 mi North - - N/A   Scattered Clouds
3:35 PM 63.1 °F 50.5 °F 63% 30.03 in 10.0 mi North - - N/A   Mostly Cloudy
3:55 PM 62.8 °F 50.5 °F 64% 30.02 in 10.0 mi North - - N/A   Overcast
4:15 PM 64.9 °F 50.9 °F 60% 30.02 in 10.0 mi North - - N/A   Mostly Cloudy
4:35 PM 65.5 °F 50.9 °F 59% 30.02 in 10.0 mi North - - N/A   Scattered Clouds
4:55 PM 63.9 °F 50.5 °F 62% 30.03 in 10.0 mi North - - N/A   Scattered Clouds
5:15 PM 61.9 °F 50.4 °F 66% 30.03 in 10.0 mi North - - N/A   Mostly Cloudy
5:35 PM 60.8 °F 50.2 °F 68% 30.03 in 10.0 mi North - - N/A   Scattered Clouds
5:55 PM 59.0 °F 50.0 °F 72% 30.03 in 10.0 mi North - - N/A   Clear
6:15 PM 57.6 °F 50.0 °F 76% 30.03 in 10.0 mi North - - N/A   Clear
6:35 PM 56.3 °F 50.0 °F 79% 30.03 in 10.0 mi North - - N/A   Clear
6:55 PM 55.4 °F 50.0 °F 82% 30.03 in 10.0 mi North - - N/A   Clear
7:15 PM 54.5 °F 50.0 °F 85% 30.04 in 10.0 mi North - - N/A   Clear
7:35 PM 54.0 °F 50.2 °F 87% 30.03 in 10.0 mi North - - N/A   Clear
7:55 PM 53.4 °F 50.0 °F 88% 30.04 in 10.0 mi North - - N/A   Scattered Clouds
8:15 PM 52.7 °F 50.2 °F 91% 30.04 in 10.0 mi North - - N/A   Scattered Clouds
8:35 PM 52.0 °F 50.0 °F 93% 30.03 in 10.0 mi North - - N/A   Mostly Cloudy
8:55 PM 51.1 °F 49.6 °F 95% 30.03 in 10.0 mi North - - N/A   Overcast
9:15 PM 50.9 °F 49.5 °F 95% 30.02 in 10.0 mi North - - N/A   Overcast
9:35 PM 51.4 °F 50.2 °F 95% 30.01 in 10.0 mi North - - N/A Rain Light Rain
9:55 PM 51.6 °F 51.1 °F 98% 30.01 in 10.0 mi North - - N/A   Overcast
10:15 PM 51.8 °F 50.9 °F 97% 30.01 in 10.0 mi North - - N/A   Overcast
10:35 PM 51.4 °F 51.3 °F 99% 30.00 in 7.0 mi North - - N/A Rain Light Rain
10:55 PM 51.3 °F 51.4 °F 100% 29.99 in 7.0 mi North - - N/A Rain Light Rain
11:15 PM 51.3 °F 51.4 °F 100% 29.99 in 7.0 mi North - - N/A Rain Light Rain
11:35 PM 51.4 °F 51.6 °F 100% 29.98 in 3.0 mi North - - N/A Rain Light Rain
11:55 PM 51.1 °F 51.3 °F 100% 29.96 in 4.0 mi North - - N/A Rain Light Rain